Time,TemperatureF,DewpointF,PressureIn,WindDirection,WindDirectionDegrees,WindSpeedMPH,WindSpeedGustMPH,Humidity,HourlyPrecipIn,Conditions,Clouds,dailyrainin,SolarRadiationWatts/m^2,SoftwareType,DateUTC
2013-08-07 00:22:00,49.0,41.0,-100.00,ENE,68,4.0,7.0,74,0.00,,,0.08,0.000000,,2013-08-07 06:22:00,
2013-08-07 00:32:00,49.0,41.0,-100.00,ENE,68,4.0,7.0,74,0.00,,,0.08,0.000000,,2013-08-07 06:32:00,
2013-08-07 00:43:00,49.0,41.0,-100.00,ENE,68,4.0,7.0,74,0.00,,,0.08,0.000000,,2013-08-07 06:43:00,
2013-08-07 00:52:00,49.0,41.0,-100.00,ENE,68,4.0,7.0,74,0.00,,,0.08,0.000000,,2013-08-07 06:52:00,
2013-08-07 01:22:00,49.0,42.0,-100.00,ENE,64,7.0,9.0,77,0.00,,,0.08,0.000000,,2013-08-07 07:22:00,
2013-08-07 01:33:00,49.0,42.0,-100.00,ENE,64,7.0,9.0,77,0.00,,,0.08,0.000000,,2013-08-07 07:33:00,
2013-08-07 01:43:00,49.0,42.0,-100.00,ENE,64,7.0,9.0,77,0.00,,,0.08,0.000000,,2013-08-07 07:43:00,
2013-08-07 01:52:00,49.0,42.0,-100.00,ENE,64,7.0,9.0,77,0.00,,,0.08,0.000000,,2013-08-07 07:52:00,
2013-08-07 02:22:00,49.0,41.0,-100.00,ENE,67,7.0,11.0,75,0.00,,,0.07,0.000000,,2013-08-07 08:22:00,
2013-08-07 02:32:00,49.0,41.0,-100.00,ENE,67,7.0,11.0,75,0.00,,,0.07,0.000000,,2013-08-07 08:32:00,
2013-08-07 02:44:00,49.0,41.0,-100.00,ENE,67,7.0,11.0,75,0.00,,,0.07,0.000000,,2013-08-07 08:44:00,
2013-08-07 02:52:00,49.0,41.0,-100.00,ENE,67,7.0,11.0,75,0.00,,,0.07,0.000000,,2013-08-07 08:52:00,
2013-08-07 03:22:00,45.0,40.0,-100.00,East,79,5.0,10.0,84,0.00,,,0.07,0.000000,,2013-08-07 09:22:00,
2013-08-07 03:32:00,45.0,40.0,-100.00,East,79,5.0,10.0,84,0.00,,,0.07,0.000000,,2013-08-07 09:32:00,
2013-08-07 03:43:00,45.0,40.0,-100.00,East,79,5.0,10.0,84,0.00,,,0.07,0.000000,,2013-08-07 09:43:00,
2013-08-07 03:54:00,45.0,40.0,-100.00,East,79,5.0,10.0,84,0.00,,,0.07,0.000000,,2013-08-07 09:54:00,
2013-08-07 04:22:00,45.0,40.0,-100.00,ESE,121,5.0,7.0,83,0.00,,,0.07,0.000000,,2013-08-07 10:22:00,
2013-08-07 04:32:00,45.0,40.0,-100.00,ESE,121,5.0,7.0,83,0.00,,,0.07,0.000000,,2013-08-07 10:32:00,
2013-08-07 04:43:00,45.0,40.0,-100.00,ESE,121,5.0,7.0,83,0.00,,,0.07,0.000000,,2013-08-07 10:43:00,
2013-08-07 04:52:00,45.0,40.0,-100.00,ESE,121,5.0,7.0,83,0.00,,,0.07,0.000000,,2013-08-07 10:52:00,
2013-08-07 06:22:00,45.0,39.0,-100.00,East,88,4.0,8.0,79,-99.99,,,0.07,0.000000,,2013-08-07 12:22:00,
2013-08-07 06:32:00,45.0,39.0,-100.00,East,88,4.0,8.0,79,-99.99,,,0.07,0.000000,,2013-08-07 12:32:00,
2013-08-07 06:43:00,45.0,39.0,-100.00,East,88,4.0,8.0,79,-99.99,,,0.07,0.000000,,2013-08-07 12:43:00,
2013-08-07 06:52:00,45.0,39.0,-100.00,East,88,4.0,8.0,79,-99.99,,,0.07,0.000000,,2013-08-07 12:52:00,
2013-08-07 07:22:00,45.0,40.0,-100.00,East,79,6.0,7.0,83,0.00,,,0.07,13.000000,,2013-08-07 13:22:00,
2013-08-07 07:32:00,45.0,40.0,-100.00,East,79,6.0,7.0,83,0.00,,,0.07,13.000000,,2013-08-07 13:32:00,
2013-08-07 07:44:00,45.0,40.0,-100.00,East,79,6.0,7.0,83,0.00,,,0.07,13.000000,,2013-08-07 13:44:00,
2013-08-07 07:53:00,45.0,40.0,-100.00,East,79,6.0,7.0,83,0.00,,,0.07,13.000000,,2013-08-07 13:53:00,
2013-08-07 08:22:00,50.0,39.0,-100.00,ENE,67,7.0,13.0,67,0.00,,,0.07,52.000000,,2013-08-07 14:22:00,
2013-08-07 08:33:00,50.0,39.0,-100.00,ENE,67,7.0,13.0,67,0.00,,,0.07,52.000000,,2013-08-07 14:33:00,
2013-08-07 08:43:00,50.0,39.0,-100.00,ENE,67,7.0,13.0,67,0.00,,,0.07,52.000000,,2013-08-07 14:43:00,
2013-08-07 08:52:00,50.0,39.0,-100.00,ENE,67,7.0,13.0,67,0.00,,,0.07,52.000000,,2013-08-07 14:52:00,
2013-08-07 09:22:00,49.0,41.0,-100.00,East,80,6.0,9.0,73,0.00,,,0.07,73.000000,,2013-08-07 15:22:00,
2013-08-07 09:33:00,49.0,41.0,-100.00,East,80,6.0,9.0,73,0.00,,,0.07,73.000000,,2013-08-07 15:33:00,
2013-08-07 09:43:00,49.0,41.0,-100.00,East,80,6.0,9.0,73,0.00,,,0.07,73.000000,,2013-08-07 15:43:00,
2013-08-07 09:53:00,49.0,41.0,-100.00,East,80,6.0,9.0,73,0.00,,,0.07,73.000000,,2013-08-07 15:53:00,
2013-08-07 10:22:00,53.0,41.0,-100.00,East,93,5.0,13.0,63,0.00,,,0.07,103.000000,,2013-08-07 16:22:00,
2013-08-07 10:33:00,53.0,41.0,-100.00,East,93,5.0,13.0,63,0.00,,,0.07,103.000000,,2013-08-07 16:33:00,
2013-08-07 10:43:00,53.0,41.0,-100.00,East,93,5.0,13.0,63,0.00,,,0.07,103.000000,,2013-08-07 16:43:00,
2013-08-07 10:52:00,53.0,41.0,-100.00,East,93,5.0,13.0,63,0.00,,,0.07,103.000000,,2013-08-07 16:52:00,
2013-08-07 11:22:00,53.0,42.0,-100.00,East,92,7.0,21.0,66,0.00,,,0.07,121.000000,,2013-08-07 17:22:00,
2013-08-07 11:33:00,53.0,42.0,-100.00,East,92,7.0,21.0,66,0.00,,,0.07,121.000000,,2013-08-07 17:33:00,
2013-08-07 11:43:00,53.0,42.0,-100.00,East,92,7.0,21.0,66,0.00,,,0.07,121.000000,,2013-08-07 17:43:00,
2013-08-07 11:52:00,53.0,42.0,-100.00,East,92,7.0,21.0,66,0.00,,,0.07,121.000000,,2013-08-07 17:52:00,
2013-08-07 12:22:00,53.0,39.0,-100.00,East,87,5.0,14.0,58,0.00,,,0.07,78.000000,,2013-08-07 18:22:00,
2013-08-07 12:32:00,53.0,39.0,-100.00,East,87,5.0,14.0,58,0.00,,,0.07,78.000000,,2013-08-07 18:32:00,
2013-08-07 12:43:00,53.0,39.0,-100.00,East,87,5.0,14.0,58,0.00,,,0.07,78.000000,,2013-08-07 18:43:00,
2013-08-07 12:52:00,53.0,39.0,-100.00,East,87,5.0,14.0,58,0.00,,,0.07,78.000000,,2013-08-07 18:52:00,
2013-08-07 13:22:00,55.0,37.0,-100.00,East,91,7.0,14.0,51,0.00,,,0.07,147.000000,,2013-08-07 19:22:00,
2013-08-07 13:32:00,55.0,37.0,-100.00,East,91,7.0,14.0,51,0.00,,,0.07,147.000000,,2013-08-07 19:32:00,
2013-08-07 13:44:00,55.0,37.0,-100.00,East,91,7.0,14.0,51,0.00,,,0.07,147.000000,,2013-08-07 19:44:00,
2013-08-07 13:52:00,55.0,37.0,-100.00,East,91,7.0,14.0,51,0.00,,,0.07,147.000000,,2013-08-07 19:52:00,
2013-08-07 14:32:00,58.0,38.0,-100.00,ESE,119,7.0,15.0,47,0.00,,,0.07,297.000000,,2013-08-07 20:32:00,
2013-08-07 14:43:00,58.0,38.0,-100.00,ESE,119,7.0,15.0,47,0.00,,,0.07,297.000000,,2013-08-07 20:43:00,
2013-08-07 14:52:00,58.0,38.0,-100.00,ESE,119,7.0,15.0,47,0.00,,,0.07,297.000000,,2013-08-07 20:52:00,
2013-08-07 15:22:00,60.0,41.0,-100.00,SE,136,6.0,14.0,50,0.00,,,0.06,533.000000,,2013-08-07 21:22:00,
2013-08-07 15:32:00,60.0,41.0,-100.00,SE,136,6.0,14.0,50,0.00,,,0.06,533.000000,,2013-08-07 21:32:00,
2013-08-07 15:43:00,60.0,41.0,-100.00,SE,136,6.0,14.0,50,0.00,,,0.06,533.000000,,2013-08-07 21:43:00,
2013-08-07 15:52:00,60.0,41.0,-100.00,SE,136,6.0,14.0,50,0.00,,,0.06,533.000000,,2013-08-07 21:52:00,
2013-08-07 16:22:00,60.0,39.0,-100.00,SE,128,6.0,14.0,46,0.00,,,0.00,453.000000,,2013-08-07 22:22:00,
2013-08-07 16:32:00,60.0,39.0,-100.00,SE,128,6.0,14.0,46,0.00,,,0.00,453.000000,,2013-08-07 22:32:00,
2013-08-07 16:43:00,60.0,39.0,-100.00,SE,128,6.0,14.0,46,0.00,,,0.00,453.000000,,2013-08-07 22:43:00,
2013-08-07 16:52:00,60.0,39.0,-100.00,SE,128,6.0,14.0,46,0.00,,,0.00,453.000000,,2013-08-07 22:52:00,
2013-08-07 17:22:00,64.0,39.0,-100.00,East,87,4.0,10.0,40,0.00,,,0.00,448.000000,,2013-08-07 23:22:00,
2013-08-07 17:32:00,64.0,39.0,-100.00,East,87,4.0,10.0,40,0.00,,,0.00,448.000000,,2013-08-07 23:32:00,
2013-08-07 17:43:00,64.0,39.0,-100.00,East,87,4.0,10.0,40,0.00,,,0.00,448.000000,,2013-08-07 23:43:00,
2013-08-07 17:52:00,64.0,39.0,-100.00,East,87,4.0,10.0,40,0.00,,,0.00,448.000000,,2013-08-07 23:52:00,
2013-08-07 18:22:00,66.0,39.0,-100.00,SE,139,3.0,8.0,37,0.00,,,0.00,451.000000,,2013-08-08 00:22:00,
2013-08-07 18:32:00,66.0,39.0,-100.00,SE,139,3.0,8.0,37,0.00,,,0.00,451.000000,,2013-08-08 00:32:00,
2013-08-07 18:42:00,66.0,39.0,-100.00,SE,139,3.0,8.0,37,0.00,,,0.00,451.000000,,2013-08-08 00:42:00,
2013-08-07 18:52:00,66.0,39.0,-100.00,SE,139,3.0,8.0,37,0.00,,,0.00,451.000000,,2013-08-08 00:52:00,
2013-08-07 19:22:00,63.0,40.0,-100.00,SE,132,0.0,6.0,42,0.00,,,0.00,261.000000,,2013-08-08 01:22:00,
2013-08-07 19:32:00,63.0,40.0,-100.00,SE,132,0.0,6.0,42,0.00,,,0.00,261.000000,,2013-08-08 01:32:00,
2013-08-07 19:43:00,63.0,40.0,-100.00,SE,132,0.0,6.0,42,0.00,,,0.00,261.000000,,2013-08-08 01:43:00,
2013-08-07 19:52:00,63.0,40.0,-100.00,SE,132,0.0,6.0,42,0.00,,,0.00,261.000000,,2013-08-08 01:52:00,
2013-08-07 20:22:00,55.0,39.0,-100.00,WNW,299,7.0,14.0,55,0.00,,,0.00,42.000000,,2013-08-08 02:22:00,
2013-08-07 20:32:00,55.0,39.0,-100.00,WNW,299,7.0,14.0,55,0.00,,,0.00,42.000000,,2013-08-08 02:32:00,
2013-08-07 20:42:00,55.0,39.0,-100.00,WNW,299,7.0,14.0,55,0.00,,,0.00,42.000000,,2013-08-08 02:42:00,
2013-08-07 20:52:00,55.0,39.0,-100.00,WNW,299,7.0,14.0,55,0.00,,,0.00,42.000000,,2013-08-08 02:52:00,
2013-08-07 21:22:00,53.0,36.0,-100.00,NW,307,7.0,16.0,52,0.00,,,0.00,2.000000,,2013-08-08 03:22:00,
2013-08-07 21:32:00,53.0,36.0,-100.00,NW,307,7.0,16.0,52,0.00,,,0.00,2.000000,,2013-08-08 03:32:00,
2013-08-07 21:43:00,53.0,36.0,-100.00,NW,307,7.0,16.0,52,0.00,,,0.00,2.000000,,2013-08-08 03:43:00,
2013-08-07 21:52:00,53.0,36.0,-100.00,NW,307,7.0,16.0,52,0.00,,,0.00,2.000000,,2013-08-08 03:52:00,
2013-08-07 22:22:00,48.0,38.0,-100.00,East,82,6.0,9.0,67,0.00,,,0.00,0.000000,,2013-08-08 04:22:00,
2013-08-07 22:33:00,48.0,38.0,-100.00,East,82,6.0,9.0,67,0.00,,,0.00,0.000000,,2013-08-08 04:33:00,
2013-08-07 22:43:00,48.0,38.0,-100.00,East,82,6.0,9.0,67,0.00,,,0.00,0.000000,,2013-08-08 04:43:00,
2013-08-07 22:53:00,48.0,38.0,-100.00,East,82,6.0,9.0,67,0.00,,,0.00,0.000000,,2013-08-08 04:53:00,
2013-08-07 23:22:00,50.0,39.0,-100.00,East,99,7.0,13.0,66,0.00,,,0.00,0.000000,,2013-08-08 05:22:00,
2013-08-07 23:33:00,50.0,39.0,-100.00,East,99,7.0,13.0,66,0.00,,,0.00,0.000000,,2013-08-08 05:33:00,
2013-08-07 23:43:00,50.0,39.0,-100.00,East,99,7.0,13.0,66,0.00,,,0.00,0.000000,,2013-08-08 05:43:00,
2013-08-07 23:52:00,50.0,39.0,-100.00,East,99,7.0,13.0,66,0.00,,,0.00,0.000000,,2013-08-08 05:52:00,